Content
SEND FEEDBACK

Daily
Averages
Monthly
Summary
Canada

VANCOUVER - UNIVERSITY, BRITISH COLUMBIA


Home > North America > Canada > British Columbia
Elevation: 249 feet     Latitude: 49 15N     Longitude: 123 15W

WEATHER
 
SELECT A DAY
Number of Records: 194,180;   Date Range: 1/1/95 - 7/10/14
 
SHARE

PRINT THIS DATA

[ ← Previous Day ]
WEATHER ALMANAC - JANUARY 18, 2013
[ Next Day → ]
[ °C ]   °F
Weather ElementAverageHighLow
Temperature33.4 °F41 °F (12:00 pm)28.4 °F (2:00 am)
Dewpoint23.4 °F37.4 °F (1:00 pm) (7:00 pm)
Humidity90.8 %100 % (2:00 am)81 % (12:00 pm)
Wind Speed3.2 mph8.1 mph (9:36 pm)
Weather ElementAverage
Visibility16.5 mi
Wind DirectionWNW (294.4 °)

Weather ElementTotal
Precipitation---
Heating Degree Days30.3 (Base 65)
Averaged from 37 records on January 18, 2013
WEATHER CONDITIONS BREAKOUT
WIND DIRECTION BREAKOUT
WEATHER BY HOUR - JANUARY 18, 2013
[ °C ]   °F
Local TimeTemperatureDewpointHumidityBarometerVisibilityWind DirectionWind SpeedGust SpeedPrecipitationEventsConditions
1:00 AM30.2 °F28.4 °F93 %30.31 in20.0 miENE (70°)2.3 mphMostly Cloudy
2:00 AM28.4 °F28.4 °F100 %30.31 in20.0 miCalmMostly Cloudy
2:49 AM30.2 °F0.0 °F20.0 miCalmMostly Cloudy
3:00 AM30.2 °F28.4 °F93 %30.31 in15.0 miCalmMostly Cloudy
3:24 AM30.2 °F0.0 °F15.0 miCalmMostly Cloudy
4:00 AM30.0 °F28.0 °F90 %30.31 in15.0 miCalmMostly Cloudy
4:00 AM30.2 °F28.4 °F93 %30.31 in15.0 miCalmMostly Cloudy
4:24 AM30.2 °F0.0 °F15.0 miCalmMostly Cloudy
5:00 AM28.4 °F26.6 °F93 %30.30 in15.0 miCalmMostly Cloudy
5:41 AM28.4 °F0.0 °F15.0 miCalmMostly Cloudy
6:00 AM28.4 °F26.6 °F93 %30.29 in15.0 miCalmFogShallow Fog
6:24 AM30.2 °F0.0 °F12.0 miCalmMostly Cloudy
7:00 AM30.2 °F30.2 °F100 %30.29 in12.0 miCalmMostly Cloudy
8:00 AM33.8 °F32.0 °F93 %30.30 in12.0 miEast (100°)2.3 mphOvercast
9:00 AM35.6 °F33.8 °F93 %30.32 in12.0 miNorth (360°)5.8 mphOvercast
10:00 AM37.0 °F35.0 °F91 %30.32 in15.0 miNorth3.5 mphOvercast
10:00 AM37.4 °F35.6 °F93 %30.32 in15.0 miNorth (360°)3.5 mphOvercast
10:22 AM37.4 °F0.0 °F15.0 miNorth (350°)3.5 mphOvercast
11:00 AM39.2 °F35.6 °F87 %30.34 in15.0 miCalmOvercast
12:00 PM41.0 °F35.6 °F81 %30.32 in20.0 miWSW (250°)2.3 mphOvercast
1:00 PM41.0 °F37.4 °F87 %30.33 in30.0 miWSW (250°)4.6 mphOvercast
2:00 PM41.0 °F37.4 °F87 %30.32 in30.0 miWest (260°)4.6 mphMostly Cloudy
3:00 PM41.0 °F35.6 °F81 %30.33 in30.0 miWest (270°)4.6 mphMostly Cloudy
4:00 PM39.0 °F36.0 °F83 %30.34 in28.0 miWest (260°)4.6 mphOvercast
4:00 PM39.2 °F35.6 °F87 %30.34 in30.0 miWest (270°)4.6 mphOvercast
5:00 PM37.4 °F33.8 °F87 %30.33 in30.0 miWNW (290°)6.9 mphOvercast
6:00 PM35.6 °F33.8 °F93 %30.33 in30.0 miWNW (300°)6.9 mphMostly Cloudy
7:00 PM35.6 °F33.8 °F93 %30.33 in30.0 miNW (310°)6.9 mphMostly Cloudy
8:00 PM37.4 °F33.8 °F87 %30.33 in30.0 miNorth (360°)3.5 mphMostly Cloudy
9:00 PM32.0 °F30.2 °F93 %30.34 in30.0 miEast (100°)5.8 mphMostly Cloudy
9:36 PM30.2 °F0.0 °F2.5 miEast (100°)8.1 mphMostly Cloudy
9:41 PM30.2 °F0.0 °F0.0 mi8.1 (2013°)Mostly Cloudy100
9:46 PM30.2 °F0.0 °F0.0 mi8.1 (2013°)0.00 inLight Freezing Fog100
9:52 PM30.2 °F0.0 °F0.0 mi8.1 (2013°)0.00 inLight Freezing Fog100
10:00 PM30.0 °F29.0 °F94 %30.36 in0.0 miEast (100°)8.1 mphFogPartial Fog
10:00 PM30.2 °F28.4 °F93 %30.36 in0.4 miEast (100°)8.1 mphFogLight Freezing Fog
11:00 PM30.2 °F28.4 °F93 %30.36 in0.4 miEast (100°)6.9 mphFogLight Freezing Fog
Hourly data recorded from CYVR, located miles away from Vancouver - University, British Columbia







STORIES FROM OUR PARTNERS